Weather in Berezino

Belarus     53°50′04″N   28°59′39″E
temp.,
°C
wind,
m/s
gust,
m/s
humid.,
%
clouds,
%
prec.,
mm/h
press.,
hPa
HPBL,
m
12 april, mon
mon1200:00+8sse39735 0.0 1027158
03:00+6se39760 0.0 1028145
06:00+5se35770 0.0 102771
09:00+10se48630 0.0 1026304
12:00+14se684377 0.0 10241273
15:00+16se563599 0.0 10221432
18:00+14se4745100 0.0 1021385
21:00+9se5984100 0.0 1022328
13 april, tue
tue1300:00+7sse3697100 0.0 1022171
03:00+6s229699 0.0 102122
06:00+6sse1193100 0.0 102110
09:00+10ese228188 0.0 1021192
12:00+14ese3367100 0.0 1020654
15:00+11e1283100 0.0 102047
18:00+11nne2288100 0.4 101839
21:00+10se2698100 2.8 1018222
14 april, wed
wed1400:00+10se3798100 0.5 1017327
03:00+9sse4897100 0.6 1016404
06:00+9sse489673 0.0 1016388
09:00+9sse379297 0.1 1016406
12:00+13se5862100 0.1 10151415
15:00+12sse5771100 0.2 10151023
18:00+12sse3570100 0.2 1014458
21:00+9sse358845 0.3 1015138
15 april, thu
thu1500:00+7se23945 0.0 101560
03:00+6se2295100 0.0 101539
06:00+6se1195100 0.0 101520
09:00+9ese1184100 0.0 1016195
12:00+11sw1174100 0.0 1016470
15:00+14nnw1160100 0.1 1015979
18:00+13ne3366100 0.6 1015674
21:00+10ne4984100 1.3 1015337
16 april, fri
fri1600:00+8nne4992100 0.0 1015272
03:00+7nne489795 0.0 1015237
06:00+7nne499737 0.0 1015259
09:00+11ne588397 0.0 1015447
12:00+14ne7966100 0.0 1015926
15:00+15ene71163100 0.5 10141560
18:00+12ne71379100 1.6 1015738
21:00+11ene71480100 1.8 1017785